Location: Arcueil
(48.7999°N, 2.3326°E)
Time: 15:13:29
(UTC+00:00)

Cosmos 1544 Rocket - Pass Details

Date: 03 February 2023
Orbit: 604 x 628 km, 82.5° (Epoch: 25 March)

Event Time Altitude Azimuth Distance (km) Brightness Sun altitude
Rises 17:20:05 0° 348° (NNW) 2,872 6.9 -5.2°
Reaches altitude 10° 17:22:18 10° 346° (NNW) 1,964 6.1 -5.6°
Maximum altitude 17:26:37 67° 264° (W) 658 4.0 -6.3°
Drops below altitude 10° 17:30:54 10° 182° (S) 1,952 6.4 -6.9°
Sets 17:33:06 0° 179° (S) 2,853 7.2 -7.3°
